Simultaneous Nadir Overpasses (SNOs) Predictions

Prediction of SNOs between FY3D and METOP-C Satellite Orbit:

Table of predicted SNOs for the next 14.0 days since TLE Epoch: 11/9/2019
Index Date (FY3D) Time (FY3D) Lat,Lon (FY3D) SZA (FY3D ) Date (METOP-C) Time (METOP-C) Lat,Lon (METOP-C) SZA (METOP-C ) Distance(km) Time Diff (sec)
1 11/17/2019 07:13:08 -73.75,-117.62 87.35 11/17/2019 07:14:14 -73.69,-114.62 87.46 93.69 66
2 11/17/2019 08:03:49 73.56, 50.13 92.47 11/17/2019 08:04:57 73.54, 52.37 92.41 70.44 68
3 11/17/2019 08:54:31 -73.44,-142.29 87.65 11/17/2019 08:55:41 -73.42,-140.59 87.71 54.05 70
4 11/17/2019 09:45:13 73.30, 25.34 92.21 11/17/2019 09:46:24 73.27, 26.42 92.16 34.46 71
5 11/17/2019 10:35:55 -73.19,-167.09 87.90 11/17/2019 10:37:08 -73.15,-166.53 87.96 18.54 73
6 11/17/2019 11:26:37 73.04, 0.54 91.96 11/17/2019 11:27:50 73.05, 0.59 91.96 1.75 73
7 11/17/2019 12:17:21 -73.03, 167.88 88.05 11/17/2019 12:18:32 -73.02, 167.87 88.06 0.94 71
8 11/17/2019 13:08:06 73.04, -24.82 91.97 11/17/2019 13:09:12 73.03, -24.80 91.96 1.50 66
9 11/17/2019 13:58:50 -73.02, 142.52 88.04 11/17/2019 13:59:54 -73.00, 142.48 88.06 2.97 64
10 11/17/2019 14:49:35 73.03, -50.18 91.98 11/17/2019 14:50:34 73.00, -50.18 91.95 3.13 59
11 11/17/2019 15:40:19 -73.02, 117.16 88.03 11/17/2019 15:41:15 -73.03, 117.20 88.02 1.63 56
12 11/17/2019 16:31:04 73.03, -75.54 91.99 11/17/2019 16:31:55 73.03, -75.46 92.00 2.45 51
13 11/17/2019 17:21:48 -73.01, 91.81 88.02 11/17/2019 17:22:37 -73.01, 91.81 88.02 0.61 49
14 11/17/2019 18:12:33 73.02,-100.89 92.01 11/17/2019 18:13:17 73.01,-100.85 91.99 1.78 44
15 11/17/2019 19:03:17 -73.01, 66.45 88.00 11/17/2019 19:03:59 -72.99, 66.42 88.03 2.52 42
16 11/17/2019 19:54:02 73.01,-126.25 92.02 11/17/2019 19:54:39 72.99,-126.24 91.99 2.94 37
17 11/17/2019 20:44:46 -73.00, 41.09 87.99 11/17/2019 20:45:20 -73.01, 41.14 87.98 2.25 34
18 11/17/2019 21:35:31 73.01,-151.61 92.03 11/17/2019 21:36:00 73.02,-151.52 92.03 3.15 29
19 11/17/2019 22:26:15 -72.99, 15.73 87.98 11/17/2019 22:26:42 -72.99, 15.76 87.99 0.91 27
20 11/17/2019 23:17:00 73.00,-176.97 92.04 11/17/2019 23:17:22 72.99,-176.91 92.03 2.26 22
21 11/18/2019 00:07:44 -72.99, -9.63 87.97 11/18/2019 00:08:04 -72.97, -9.63 87.99 2.20 20
22 11/18/2019 00:58:29 73.00, 157.67 92.05 11/18/2019 00:58:44 72.97, 157.71 92.02 2.93 15
23 11/18/2019 01:49:13 -72.98, -34.98 87.96 11/18/2019 01:49:25 -73.00, -34.91 87.95 2.91 12
24 11/18/2019 02:39:57 72.94, 132.42 92.01 11/18/2019 02:40:06 72.95, 132.32 92.02 3.49 9
25 11/18/2019 03:30:42 -72.98, -60.34 87.95 11/18/2019 03:30:47 -72.97, -60.30 87.95 1.50 5
26 11/18/2019 04:21:27 72.98, 106.96 92.07 11/18/2019 04:21:27 72.98, 107.04 92.06 2.85 0
27 11/18/2019 05:12:11 -72.97, -85.70 87.94 11/18/2019 05:12:09 -72.95, -85.68 87.96 2.08 2
28 11/18/2019 06:02:56 72.98, 81.60 92.08 11/18/2019 06:02:49 72.95, 81.65 92.06 3.09 7
29 11/18/2019 06:53:40 -72.96,-111.06 87.93 11/18/2019 06:53:30 -72.98,-110.96 87.91 3.59 10
30 11/18/2019 07:44:24 72.92, 56.35 92.04 11/18/2019 07:44:11 72.93, 56.27 92.05 2.93 13
31 11/18/2019 08:35:09 -72.96,-136.42 87.92 11/18/2019 08:34:52 -72.96,-136.35 87.92 2.17 17
32 11/18/2019 09:25:54 72.97, 30.88 92.10 11/18/2019 09:25:32 72.96, 30.99 92.10 3.49 22
33 11/18/2019 10:16:38 -72.95,-161.78 87.91 11/18/2019 10:16:14 -72.94,-161.74 87.92 2.20 24
34 11/18/2019 11:07:23 72.96, 5.52 92.11 11/18/2019 11:06:54 72.94, 5.60 92.09 3.41 29
35 11/18/2019 11:58:07 -72.95, 172.87 87.90 11/18/2019 11:57:36 -72.91, 172.87 87.93 3.64 31
36 11/18/2019 12:48:51 72.90, -19.73 92.07 11/18/2019 12:48:16 72.92, -19.79 92.09 2.44 35
37 11/18/2019 13:39:36 -72.94, 147.51 87.89 11/18/2019 13:38:57 -72.94, 147.59 87.88 2.86 39
38 11/18/2019 14:30:20 72.90, -45.09 92.08 11/18/2019 14:29:38 72.89, -45.17 92.08 2.85 42
39 11/18/2019 15:21:05 -72.93, 122.15 87.88 11/18/2019 15:20:19 -72.92, 122.21 87.89 2.52 46
40 11/18/2019 16:11:49 72.89, -70.45 92.09 11/18/2019 16:10:59 72.92, -70.45 92.13 3.55 50
41 11/18/2019 17:02:33 -72.88, 96.90 87.92 11/18/2019 17:01:41 -72.90, 96.82 87.89 3.30 52
42 11/18/2019 17:53:18 72.88, -95.80 92.10 11/18/2019 17:52:21 72.90, -95.84 92.12 2.10 57
43 11/18/2019 18:44:02 -72.87, 71.54 87.91 11/18/2019 18:43:03 -72.87, 71.43 87.90 3.43 59
44 11/18/2019 19:34:47 72.88,-121.16 92.11 11/18/2019 19:33:43 72.88,-121.23 92.12 2.13 64
45 11/18/2019 20:25:32 -72.92, 46.07 87.84 11/18/2019 20:24:24 -72.90, 46.15 87.85 2.99 68
46 11/18/2019 21:16:16 72.87,-146.52 92.12 11/18/2019 21:15:05 72.86,-146.61 92.11 3.59 71
47 11/18/2019 22:07:00 -72.86, 20.82 87.89 11/18/2019 22:05:46 -72.88, 20.77 87.86 2.95 74
48 11/18/2019 22:57:42 72.71,-171.56 91.98 11/18/2019 22:56:29 72.73,-172.21 92.01 21.52 73
49 11/18/2019 23:48:25 -72.65, -4.12 88.09 11/18/2019 23:47:12 -72.66, -5.04 88.06 30.54 73
50 11/19/2019 00:39:06 72.45, 163.60 91.72 11/19/2019 00:37:56 72.45, 161.89 91.76 57.29 70
51 11/19/2019 01:29:48 -72.34, -28.86 88.39 11/19/2019 01:28:39 -72.38, -30.93 88.31 69.88 69
52 11/19/2019 02:20:29 72.14, 138.84 91.42 11/19/2019 02:19:23 72.17, 136.00 91.51 96.74 66




NCC Satellite Simultaneous Nadir Overpasses (SNOs) Prediction Service
